DLH370 EDDV-EDDG

Flight info

Callsign DLH370
Flight time 0h 24m
Altitude 12000
Route VAXEV1F VAXEV Z718 OSN DCT
Aircraft A20N/M-SDE2E3FGHIRWXY/LB1

Departure

Time 2026-04-20 17:40
Airport Hannover Airport (EDDV)

Arrival

Time 2026-04-20 18:04
Airport Münster Osnabrück Airport (EDDG)
Time Latitude Longitude Altitude Speed Heading
2026-04-20 17:14 52.45811 9.69811 181 ft 0 kts 330°
2026-04-20 17:33 52.45798 9.69823 172 ft 2 kts 330°
2026-04-20 17:33 52.45783 9.69836 182 ft 2 kts 337°
2026-04-20 17:34 52.45767 9.69842 182 ft 2 kts
2026-04-20 17:34 52.45752 9.69834 182 ft 2 kts 28°
2026-04-20 17:34 52.45737 9.69820 182 ft 2 kts 37°
2026-04-20 17:34 52.45725 9.69803 183 ft 2 kts 45°
2026-04-20 17:35 52.45714 9.69783 183 ft 2 kts 61°
2026-04-20 17:35 52.45711 9.69772 183 ft 0 kts 75°
2026-04-20 17:36 52.45711 9.69774 183 ft 1 kts 76°
2026-04-20 17:37 52.45701 9.69805 201 ft 5 kts 132°
2026-04-20 17:37 52.45653 9.69827 190 ft 10 kts 169°
2026-04-20 17:37 52.45603 9.69921 197 ft 15 kts 98°
2026-04-20 17:37 52.45596 9.70119 185 ft 19 kts 93°
2026-04-20 17:38 52.45590 9.70352 185 ft 23 kts 93°
2026-04-20 17:38 52.45581 9.70642 186 ft 26 kts 92°
2026-04-20 17:38 52.45573 9.70936 185 ft 17 kts 93°
2026-04-20 17:38 52.45533 9.71076 200 ft 14 kts 144°
2026-04-20 17:39 52.45442 9.71080 196 ft 15 kts 207°
2026-04-20 17:39 52.45408 9.71011 197 ft 0 kts 258°
2026-04-20 17:39 52.45409 9.70732 188 ft 69 kts 273°
2026-04-20 17:39 52.45448 9.69472 194 ft 146 kts 273°
2026-04-20 17:40 52.45514 9.67680 754 ft 165 kts 275°
2026-04-20 17:40 52.45602 9.65712 1512 ft 183 kts 276°
2026-04-20 17:40 52.45659 9.63551 2439 ft 200 kts 275°
2026-04-20 17:40 52.45711 9.61131 3152 ft 222 kts 275°
2026-04-20 17:41 52.45767 9.58522 3827 ft 233 kts 275°
2026-04-20 17:41 52.45829 9.55843 4118 ft 236 kts 275°
2026-04-20 17:41 52.45893 9.53140 4181 ft 237 kts 275°
2026-04-20 17:41 52.45885 9.50478 4191 ft 238 kts 265°
2026-04-20 17:42 52.45500 9.47838 4195 ft 240 kts 251°
2026-04-20 17:42 52.44900 9.45044 4196 ft 278 kts 251°
2026-04-20 17:42 52.44219 9.41893 4193 ft 300 kts 251°
2026-04-20 17:42 52.43527 9.38662 4193 ft 301 kts 251°
2026-04-20 17:43 52.42840 9.35413 4192 ft 302 kts 251°
2026-04-20 17:43 52.42168 9.32209 4193 ft 301 kts 252°
2026-04-20 17:43 52.41468 9.28858 4191 ft 318 kts 252°
2026-04-20 17:43 52.40753 9.25430 4192 ft 316 kts 252°
2026-04-20 17:44 52.40195 9.21948 4176 ft 316 kts 262°
2026-04-20 17:44 52.39970 9.18374 4188 ft 316 kts 267°
2026-04-20 17:44 52.39815 9.14788 4190 ft 316 kts 268°
2026-04-20 17:44 52.39658 9.11201 4191 ft 316 kts 266°
2026-04-20 17:45 52.39278 9.07637 4193 ft 318 kts 256°
2026-04-20 17:45 52.38551 9.04247 4184 ft 318 kts 249°
2026-04-20 17:45 52.37730 9.00894 4191 ft 317 kts 248°
2026-04-20 17:45 52.36897 8.97534 4193 ft 318 kts 248°
2026-04-20 17:46 52.36068 8.94165 4192 ft 318 kts 248°
2026-04-20 17:46 52.35245 8.90797 4185 ft 318 kts 249°
2026-04-20 17:46 52.34427 8.87435 4191 ft 318 kts 249°
2026-04-20 17:46 52.33622 8.84111 4189 ft 319 kts 249°
2026-04-20 17:47 52.32805 8.80741 4188 ft 318 kts 249°
2026-04-20 17:47 52.31990 8.77377 4181 ft 319 kts 249°
2026-04-20 17:47 52.31171 8.74000 4193 ft 318 kts 249°
2026-04-20 17:47 52.30354 8.70633 4193 ft 318 kts 249°
2026-04-20 17:48 52.29636 8.67200 4186 ft 317 kts 253°
2026-04-20 17:48 52.28986 8.63796 4193 ft 318 kts 253°
2026-04-20 17:48 52.28335 8.60346 4177 ft 316 kts 253°
2026-04-20 17:48 52.27680 8.56894 4182 ft 318 kts 253°
2026-04-20 17:49 52.27022 8.53435 4197 ft 317 kts 253°
2026-04-20 17:49 52.26378 8.50037 4187 ft 318 kts 253°
2026-04-20 17:49 52.25725 8.46589 4183 ft 317 kts 253°
2026-04-20 17:49 52.25073 8.43145 4192 ft 318 kts 253°
2026-04-20 17:50 52.24419 8.39692 4200 ft 318 kts 253°
2026-04-20 17:50 52.23755 8.36247 4197 ft 318 kts 253°
2026-04-20 17:50 52.23101 8.32799 4198 ft 317 kts 253°
2026-04-20 17:50 52.22449 8.29357 4201 ft 318 kts 253°
2026-04-20 17:51 52.21769 8.25971 4201 ft 318 kts 250°
2026-04-20 17:51 52.20995 8.22589 4201 ft 319 kts 252°
2026-04-20 17:51 52.20541 8.19062 4203 ft 317 kts 269°
2026-04-20 17:51 52.20600 8.15475 4205 ft 317 kts 274°
2026-04-20 17:52 52.20724 8.11881 4207 ft 317 kts 275°
2026-04-20 17:52 52.20856 8.08300 4210 ft 316 kts 275°
2026-04-20 17:52 52.20856 8.04741 4211 ft 308 kts 265°
2026-04-20 17:52 52.20465 8.01411 4212 ft 291 kts 253°
2026-04-20 17:53 52.19817 7.98384 4215 ft 274 kts 249°
2026-04-20 17:53 52.19180 7.95532 4197 ft 259 kts 250°
2026-04-20 17:53 52.18591 7.92846 4210 ft 245 kts 250°
2026-04-20 17:53 52.18051 7.90334 4215 ft 230 kts 250°
2026-04-20 17:54 52.17541 7.87915 4070 ft 224 kts 250°
2026-04-20 17:54 52.17029 7.85477 3683 ft 231 kts 251°
2026-04-20 17:54 52.16506 7.82991 3468 ft 228 kts 251°
2026-04-20 17:54 52.15999 7.80586 3332 ft 221 kts 251°
2026-04-20 17:55 52.15500 7.78187 2512 ft 232 kts 253°
2026-04-20 17:55 52.14987 7.75617 1413 ft 248 kts 251°
2026-04-20 17:55 52.14426 7.73025 1346 ft 245 kts 251°
2026-04-20 17:55 52.13851 7.70348 1402 ft 247 kts 251°
2026-04-20 17:56 52.13305 7.67804 1515 ft 228 kts 249°
2026-04-20 17:56 52.12565 7.65643 1789 ft 209 kts 227°
2026-04-20 17:56 52.11417 7.64357 2048 ft 198 kts 197°
2026-04-20 17:56 52.10048 7.64105 2130 ft 200 kts 166°
2026-04-20 17:57 52.08837 7.65068 2294 ft 196 kts 129°
2026-04-20 17:57 52.08304 7.67008 2443 ft 190 kts 86°
2026-04-20 17:57 52.08424 7.69173 2500 ft 198 kts 81°
2026-04-20 17:57 52.08618 7.71458 2515 ft 210 kts 79°
2026-04-20 17:58 52.08870 7.73860 2572 ft 216 kts 77°
2026-04-20 17:58 52.09189 7.76236 2746 ft 214 kts 75°
2026-04-20 17:58 52.09551 7.78577 2875 ft 215 kts 74°
2026-04-20 17:58 52.09938 7.80955 2915 ft 219 kts 73°
2026-04-20 17:59 52.10346 7.83349 3017 ft 220 kts 73°
2026-04-20 17:59 52.10769 7.85761 3020 ft 224 kts 73°
2026-04-20 17:59 52.11197 7.88208 2975 ft 231 kts 73°
2026-04-20 17:59 52.11642 7.90748 2931 ft 236 kts 73°
2026-04-20 18:00 52.12099 7.93351 2913 ft 240 kts 73°
2026-04-20 18:00 52.12704 7.95835 3186 ft 229 kts 53°
2026-04-20 18:00 52.14050 7.97084 3538 ft 238 kts 17°
2026-04-20 18:00 52.15706 7.97206 3709 ft 241 kts 348°
2026-04-20 18:01 52.17248 7.96174 3952 ft 241 kts 341°
2026-04-20 18:01 52.18533 7.94451 3927 ft 248 kts 300°
2026-04-20 18:01 52.18628 7.91579 3285 ft 273 kts 255°
2026-04-20 18:01 52.17974 7.88605 2864 ft 281 kts 249°
2026-04-20 18:02 52.17258 7.85749 2548 ft 255 kts 247°
2026-04-20 18:02 52.16618 7.83269 2187 ft 223 kts 249°
2026-04-20 18:02 52.16123 7.81001 1783 ft 209 kts 253°
2026-04-20 18:02 52.15681 7.78842 1455 ft 195 kts 252°
2026-04-20 18:03 52.15250 7.76800 1105 ft 185 kts 251°
2026-04-20 18:03 52.14828 7.74882 789 ft 174 kts 252°
2026-04-20 18:03 52.14439 7.73090 572 ft 162 kts 252°
2026-04-20 18:03 52.14085 7.71419 366 ft 151 kts 253°
2026-04-20 18:04 52.13757 7.69883 217 ft 136 kts 252°
2026-04-20 18:04 52.13492 7.68603 166 ft 80 kts 251°
2026-04-20 18:04 52.13382 7.68272 167 ft 16 kts 197°
2026-04-20 18:04 52.13353 7.68272 167 ft 0 kts 169°
2026-04-20 18:06 52.13352 7.68272 167 ft 1 kts 169°
2026-04-20 18:06 52.13311 7.68292 166 ft 9 kts 162°
2026-04-20 18:06 52.13299 7.68299 166 ft 0 kts 161°
2026-04-20 18:07 52.13298 7.68300 166 ft 1 kts 160°
2026-04-20 18:08 52.13280 7.68322 166 ft 6 kts 131°
2026-04-20 18:08 52.13271 7.68369 166 ft 8 kts 92°